Regional Weather Roundup
Issued by NWS

Home | Current Version | Previous Version | Graphics & Text | Print | Product List | Glossary On
Versions: 1 2 3 4 5 6 7 8 9 10 11 12 13 14 15 16 17 18 19 20 21 22 23 24 25 26 27 28 29 30 31 32 33 34 35 36 37 38 39 40 41 42 43 44 45 46 47 48 49 50
000
ASUS43 KMPX 200601
RWRMN
WEATHER ROUNDUP FOR MINNESOTA
NATIONAL WEATHER SERVICE TWIN CITIES/CHANHASSEN MN
1200 AM CST FRI JAN 20 2017


NOTE: "FAIR" INDICATES FEW OR NO CLOUDS BELOW 12,000 FEET WITH NO
SIGNIFICANT WEATHER AND/OR OBSTRUCTIONS TO VISIBILITY. N/A MEANS
CURRENT SKY AND/OR WEATHER CONDITIONS ARE NOT AVAILABLE.

MNZ060>063-068>070-200700-
   Twin Cities Metro

CITY           SKY/WX    TMP DP  RH WIND       PRES   REMARKS
TWIN CITIES    CLOUDY    36  33  89 SE6       29.68S FOG
6HR MIN TEMP:  36; 6HR MAX TEMP:  37;

ST PAUL        CLOUDY    36  34  92 SE6       29.69S
CRYSTAL        CLOUDY    36  33  89 E3        29.66F FOG
BLAINE         CLOUDY    37  36  93 CALM      29.67F FOG
LAKEVILLE      DRIZZLE   32  32 100 E3        29.66F
EDEN PRAIRIE   MIX PCPN  36  32  85 E5        29.65F FOG
6HR MIN TEMP:  36; 6HR MAX TEMP:  38; 6HR PCP: TRACE;

SOUTH ST PAUL  CLOUDY    37  34  91 SE6       29.68S FOG
LAKE ELMO      DRIZZLE   36  34  93 SE6       29.69S
$$
MNZ001>005-007-008-013>017-022>024-027-028-200700-
   Northwest Minnesota

CITY           SKY/WX    TMP DP  RH WIND       PRES   REMARKS
BEMIDJI        FOG       34  34 100 S9        29.59F VSB 1/2 WCI  27
HALLOCK        CLOUDY    34  34 100 S16       29.54F FOG     WCI  23
ROSEAU         CLOUDY    36  30  80 SW14      29.57R HAZE
WARROAD        CLOUDY    36  32  87 SW13G18   29.57S FOG
THIEF RVR FALL FOG       34  34 100 S16       29.59R VSB 1   WCI  24
CROOKSTON      CLOUDY    36  34  93 S18       29.58S FOG
FOSSTON        FOG       34  32  93 S8        29.58F VSB 1   WCI  27
DETROIT LAKES  FOG       34  34 100 S9        29.59F VSB 3/4 WCI  26
MOORHEAD       CLOUDY    34  34 100 SE10      29.58F FOG     WCI  26
PARK RAPIDS    FOG       34  31  88 S8        29.59F VSB 1/4 WCI  27
MAHNOMEN       CLOUDY    34  33  98 S10       29.58F FOG     WCI  26
$$
MNZ006-009>011-018-025>026-200700-
   North Central Minnesota

CITY           SKY/WX    TMP DP  RH WIND       PRES   REMARKS
BAUDETTE       CLOUDY    37  36  96 S12       29.57S FOG
FLAG ISLAND    FOG       25  25 100 S3        29.56S VSB 1/4
INTL FALLS     CLOUDY    38  36  92 S5        29.60F FOG
6HR MIN TEMP:  34; 6HR MAX TEMP:  38;

WASKISH        CLOUDY    37  37 100 S6        29.58F FOG
BIG FORK       FOG       30  28  93 CALM      29.62F VSB 1/4
LONGVILLE      MOCLDY    30  28  93 CALM      29.61F FOG
GRAND RAPIDS   CLEAR     31  30  96 SE5       29.65F FOG     WCI  26
CRANE LAKE     FOG       27  27 100 CALM      29.66S VSB<1/4
ORR            CLEAR     32  30  93 CALM      29.61F FOG
COOK           CLEAR     34  32  93 SE6       29.65R WCI  29
WALKER         CLOUDY    34  33  96 S8        29.60F FOG     WCI  27
$$
MNZ012-019>021-037-200700-
   Northeast Minnesota

CITY           SKY/WX    TMP DP  RH WIND       PRES   REMARKS
DULUTH         CLOUDY    33  32  96 SE6       29.66F WCI  28
6HR MIN TEMP:  32; 6HR MAX TEMP:  38;

ELY            CLEAR     34  32  93 CALM      29.65F
HIBBING        FOG       21  21 100 SE3       29.64F VSB 1/4
EVELETH        CLEAR     22  21  95 NE3       29.66F FOG
DULUTH HARBOR  CLOUDY    34  30  86 CALM      29.70F FOG
TWO HARBORS    CLEAR     30  25  80 CALM      29.67F HAZE
SILVER BAY     FOG       25  25 100 CALM      29.67F VSB 1/4
GRAND MARAIS     N/A     30  28  92 CALM      29.70F
G MARAIS ARPRT CLEAR     25  21  86 CALM      29.67F FOG
$$
MNZ029>031-032-039>041-046>048-054>057-064-200700-
   West Central Minnesota

CITY           SKY/WX    TMP DP  RH WIND       PRES   REMARKS
FERGUS FALLS   FOG       36  36 100 SE10      29.62F VSB 1
WHEATON        CLOUDY    41  41 100 SE12      29.60S FOG
MORRIS         FOG       34  34 100 SE12      29.59F VSB 1/4 WCI  25
ALEXANDRIA     FOG       34  34 100 SE7       29.61S VSB 1/2 WCI  28
ELBOW LAKE     SNOW      34  34 100 E12       29.59F VSB 1/2 WCI  25
WADENA         FOG       34  34 100 S5        29.61R VSB 1/4 WCI  30
GLENWOOD       FOG       34  34 100 SE8       29.61S VSB 1/4 WCI  27
APPLETON       FOG       36  34  93 SE7       29.60F VSB 1
BENSON         CLOUDY    36  34  93 S7          N/A
ORTONVILLE     CLOUDY    34  32  93 SE12      29.58S FOG     WCI  25
MADISON        FOG       37  37 100 SE9       29.59F VSB 1
WILLMAR        CLOUDY    36  34  93 SE8       29.62F FOG
$$
MNZ033>034-036-042>043-049>051-058-059-200700-
   Central Minnesota

CITY           SKY/WX    TMP DP  RH WIND       PRES   REMARKS
ST CLOUD       CLOUDY    34  34 100 E5        29.64F FOG     WCI  30
6HR MIN TEMP:  34; 6HR MAX TEMP:  37;

SAUK CENTRE    CLOUDY    33  33  99 SE9       29.62F FOG     WCI  25
PAYNESVILLE    CLOUDY    34  34 100 E5        29.63F WCI  30
AITKIN         CLEAR     37  30  75 S6        29.61F
PINE RIVER     FOG       30  30 100 CALM      29.66S VSB 1/2
BRAINERD       CLOUDY    36  32  85 S9        29.63F
STAPLES          N/A     34  34 100 SE3       29.62S FOG
LONG PRAIRIE   CLOUDY    34  32  93 SE9       29.62S FOG     WCI  26
LITTLE FALLS   CLOUDY    34  32  93 SE6       29.64F FOG     WCI  29
LITCHFIELD     FOG       36  34  93 SE6       29.64F VSB 1/2
BUFFALO        CLOUDY    35  32  90 E5        29.66F FOG     WCI  31
MAPLE LAKE     CLOUDY    35  34  97 MISG      29.65F FOG
HUTCHINSON     FOG       35  35 100 E5        29.65F VSB 3/4 WCI  31
$$
MNZ037-044-045-052-053-200700-
   East Central Minnesota

CITY           SKY/WX    TMP DP  RH WIND       PRES   REMARKS
PRINCETON      CLOUDY    36  34  93 SE3       29.66F FOG
MORA           CLOUDY    34  30  86 SE3       29.69S
CAMBRIDGE      CLOUDY    37  30  75 E3        29.65S
RUSH CITY      DRIZZLE   36  32  87 E3        29.68F
MOOSE LAKE     CLOUDY    36  32  87 CALM      29.66F
HINCKLEY       CLOUDY    36  32  87 E5        29.67F
CLOQUET        PTCLDY    34  30  86 SE3       29.66F FOG
MCGREGOR       CLEAR     34  32  93 SE7       29.65F WCI  28
$$
MNZ071>073-080-081-089-090-097-098-200700-
   Southwest Minnesota

CITY           SKY/WX    TMP DP  RH WIND       PRES   REMARKS
MONTEVIDEO     CLOUDY    34  34 100 S7        29.62F FOG     WCI  28
GRANITE FALLS  CLOUDY    35  35  98 SE3       29.61F FOG
CANBY          FOG       35  35  99 CALM      29.59F VSB 1
MARSHALL       FOG       35  34  96 SE6       29.59F VSB 3/4 WCI  30
REDWOOD FALLS  FOG       34  32  92 SE6       29.60F VSB 1/4 WCI  29
OLIVIA         CLOUDY    34  32  93 SE7       29.61F FOG     WCI  28
PIPESTONE      FOG       36  36 100 S7        29.57F VSB 1/2
WINDOM         SNOW      34  34 100 S5        29.59F VSB 1/4 WCI  30
WORTHINGTON    FOG       34  34 100 S7        29.59S VSB 1/2 WCI  28
JACKSON        FOG       32  32 100 S7        29.59F VSB 1/2 WCI  26
TRACY          CLOUDY    36  36  99 S3        29.59F FOG
SLAYTON        FOG       34  34 100 SW6       29.59F VSB 1/2 WCI  29
$$
MNZ065>067-074>077-082>085-091>093-200700-
   South Central Minnesota

CITY           SKY/WX    TMP DP  RH WIND       PRES   REMARKS
MANKATO        CLOUDY    34  33  96 SE8       29.64F FOG     WCI  27
NEW ULM        FOG       34  34 100 SE3       29.62F VSB 3/4
ST JAMES       FOG       34  34 100 SE6       29.63F VSB 3/4 WCI  29
FAIRMONT       LGT RAIN  34  33  96 SE8       29.62F VSB 1/2 WCI  27
GLENCOE        LGT RAIN  35  35 100 E6        29.64F VSB 3/4 WCI  30
FARIBAULT      DRIZZLE   36  34  93 E6        29.66F
OWATONNA       DRIZZLE   36  34  93 E6        29.65F
WASECA         FOG       34  34 100 SE7       29.65F VSB 1   WCI  28
ALBERT LEA     FOG       34  34 100 SE6       29.63F VSB 1/2 WCI  29
$$
MNZ078>079-086>088-094>096-200700-
   Southeast Minnesota

CITY           SKY/WX    TMP DP  RH WIND       PRES   REMARKS
ROCHESTER      CLOUDY    33  33 100 E9        29.66F FOG     WCI  25
6HR MIN TEMP:  33; 6HR MAX TEMP:  35; 6HR PCP:  0.03;

RED WING       RAIN      36  34  93 SE8       29.69F
STANTON        CLOUDY    37  34  90 SE5       29.65F FOG
DODGE CENTER   MIX PCPN  34  34 100 E6        29.65F VSB 1/2 WCI  29
WINONA         CLOUDY    34  34 100 SE6       29.72F FOG     WCI  29
AUSTIN         FOG       34  32  93 E6        29.64F VSB 1   WCI  29
PRESTON        FOG       33  32  96 E8        29.67F VSB 1/2 WCI  26
$$
ABBREVIATIONS USED IN REMARKS
   TC - TEMPERATURES IN CELSIUS
  WCI - WIND CHILL INDEX
   HX - HEAT INDEX
  VSB - VISIBILITY
$$




USA.gov is the U.S. government's official web portal to all federal, state and local government web resources and services.